weather.gov     
National Weather Service

Regional Weather Roundup
NWS Homepage
This page is being discontinued on March 12, 2014.
The same data is available at this site. Please update your bookmarks.
Thank you, and we apologize for the inconvenience.
Please send an email to SR-SRH.Webmaster@noaa.gov with any concerns.


Current Version
Previous Version:    01  02  03  04  05  06  07  08  09  10  11  12  13  14  15  16  17  18  19  20  21  22  23  24  25  26  
[Printable]
609
ASUS42 KFFC 231503
RWRGA
WEATHER ROUNDUP FOR GEORGIA
NATIONAL WEATHER SERVICE PEACHTREE CITY GA
1100 AM EDT THU OCT 23 2014

NOTE: "FAIR" INDICATES FEW OR NO CLOUDS BELOW 12,000 FEET WITH NO
SIGNIFICANT WEATHER AND/OR OBSTRUCTIONS TO VISIBILITY.

* = USE WITH CAUTION. THE STATIONS MARKED WITH AN ASTERISK MAY NOT
REPORT WEATHER SUCH AS PRECIPITATION, FOG, OR THUNDER AND ARE NOT
QUALITY CONTROLLED BY NWS.

THE REMARK "TC" DENOTES TEMPERATURE READING IN DEGREES CELSIUS.

GAZ001>058-231600-
NORTH GEORGIA

CITY           SKY/WX    TMP DP  RH WIND       PRES   REMARKS
ATLANTA        MOSUNNY   56  42  59 W5        30.14F
ATHENS         SUNNY     57  43  59 CALM      30.13S
CHAMBLEE       SUNNY     55  42  61 W7        30.14S
PEACHTREE CITY SUNNY     57  44  62 CALM      30.16F
ROME           SUNNY     56  43  61 N8        30.16F
WEST ATLANTA   SUNNY     54  44  69 VRB5      30.15S
GAINESVILLE    SUNNY     56  41  57 W7        30.14S
CARTERSVILLE   SUNNY     50  40  68 W3        30.17F


CITY           SKY/WX    TMP DP  RH WIND       PRES   REMARKS
DALTON*        SUNNY     52  43  71 N12       30.17S
LAWRENCEVILLE* SUNNY     55  39  54 SW8       30.12S
MARIETTA       MOSUNNY   53  44  69 W5        30.14F
KENNESAW*      SUNNY     46  39  76 NW9       30.17S
$$

GAZ059>098-102>109-231600-
CENTRAL GEORGIA

CITY           SKY/WX    TMP DP  RH WIND       PRES   REMARKS
AUGUSTA-BUSH   SUNNY     60  39  45 N7        30.13S
AUGUSTA-DANIEL SUNNY     59  40  49 NW7       30.13S
COLUMBUS       SUNNY     57  43  59 E7        30.15S
MACON          SUNNY     57  42  57 VRB5      30.15S
ROBINS AFB     SUNNY     58  46  64 VRB1      30.15S


CITY           SKY/WX    TMP DP  RH WIND       PRES   REMARKS
LAGRANGE*      SUNNY     59  47  63 E3        30.15F
SYLVANIA*      SUNNY     65  50  57 N5        30.13F
MILLEDGEVILLE* SUNNY     57  48  72 CALM      30.14F
$$

GAZ099>101-110>166-231600-
SOUTH GEORGIA

CITY           SKY/WX    TMP DP  RH WIND       PRES   REMARKS
SAVANNAH       SUNNY     63  43  48 NE7       30.12F
VALDOSTA       SUNNY     64  45  49 E5        30.12R
ALMA           SUNNY     61  45  55 CALM      30.12S
ST SIMONS      SUNNY     65  53  65 NE8       30.10S
FT STEWART     SUNNY     60  45  57 CALM      30.10F
ALBANY         SUNNY     61  46  57 CALM      30.16S
HUNTER AFB     SUNNY     61  45  56 N6        30.09F
MOODY AFB      SUNNY     63  46  53 VRB7      30.12R
BRUNSWICK      SUNNY     64  52  63 N3        30.11S


CITY           SKY/WX    TMP DP  RH WIND       PRES   REMARKS
BAINBRIDGE*    SUNNY     64  50  59 E7        30.14S
MOULTRIE*      SUNNY     61  46  59 E3        30.13S
VIDALIA*       SUNNY     61  46  59 E3        30.13S
WAYCROSS*      SUNNY     64  50  59 E3        30.11F
DOUGLAS*       SUNNY     63  43  48 E3        30.14S
$$




U.S. Dept. of Commerce
NOAA National Weather Service
1325 East West Highway
Silver Spring, MD 20910
E-mail: w-nws.webmaster@noaa.gov
Page last modified: May 16, 2007
NATIONAL WEATHER SERVICE: for Safety, for Work, for Fun - FOR LIFE